Location: El Carrer d�Abaix
(41.5797°N, 2.1791°E)
Time: 21:45:18
(UTC+00:00)

Cosmos 2082 Rocket - Pass Details

Date: 07 October 2020
Orbit: 834 x 853 km, 71.0° (Epoch: 27 October)

Event Time Altitude Azimuth Distance (km) Brightness Sun altitude
Rises 19:33:06 0° 321° (NW) 3,395 6.2 -25.1°
Reaches altitude 10° 19:36:07 10° 306° (NW) 2,459 5.5 -25.6°
Maximum altitude 19:40:08 20° 260° (W) 1,833 4.6 -26.3°
Drops below altitude 10° 19:44:09 10° 214° (SW) 2,455 4.8 -27.1°
Sets 19:47:11 0° 198° (SSW) 3,389 5.4 -27.6°
